Miscellaneous Local Product
Issued by NWS North Platte, NE

Home | Current Version | Previous Version | Graphics & Text | Print | Product List | Glossary On
Versions: 1 2 3 4 5 6 7 8 9 10 11 12 13 14 15 16 17 18 19 20 21 22 23 24 25 26 27 28 29 30 31 32 33 34 35 36 37 38 39 40 41 42 43 44 45 46 47 48 49 50
000
AXUS43 KLBF 301210
MISLBF


WESTERN AND NORTH CENTRAL NEBRASKA HOURLY WEATHER ROUNDUP
NATIONAL WEATHER SERVICE NORTH PLATTE NE
700 AM CDT MON MAY 30 2016

NOTE: "FAIR" INDICATES FEW OR NO CLOUDS BELOW 12,000 FEET WITH NO
SIGNIFICANT WEATHER AND/OR OBSTRUCTIONS TO VISIBILITY.

NOTE: STATIONS NOT REPORTING VARIABLES SUCH AS SKY/WEATHER OR
PRESSURE ARE PROVIDED BY RAWS AND APRS NETWORKS AND ARE NOT UNDER
NATIONAL WEATHER SERVICE QUALITY CONTROL.

...OBSERVATIONS IN AND NEAR THE EASTERN PANHANDLE OF NEBRASKA...

CITY           SKY/WX    TMP DP  RH WIND       PRES   REMARKS
PINE RIDGE     CLOUDY    57  49  74 SW6       29.93R
CHADRON        CLOUDY    51  47  86 CALM      29.93S
ALLIANCE       CLOUDY    51  48  89 SE8       29.97S
SIDNEY         CLOUDY    52  48  86 SW12      30.01S
CRESCENT LAKE    N/A     55  49  81 S5          N/A
BIG SPRINGS      N/A     58  51  78 S14         N/A
$$

...OBSERVATIONS IN NORTHERN NEBRASKA AND FAR SOUTHERN SOUTH DAKOTA...

CITY           SKY/WX    TMP DP  RH WIND       PRES   REMARKS
WINNER         MOCLDY    61  56  83 SE14      29.97R
VALENTINE      CLOUDY    55  52  89 E6        29.97S
THEDFORD       CLOUDY    58  53  82 SW5       29.98S
AINSWORTH      PTCLDY    54  53  94 E8        29.99R
O`NEILL        PTCLDY    59  57  93 E6        29.99R
ORD            CLOUDY    58  54  86 CALM      29.99R
BROKEN BOW     CLOUDY    58  54  86 N3        30.00R
BUTTE            N/A     60  55  83 NE6         N/A
CHAMBERS         N/A     60  58  94 CALM        N/A
EWING            N/A     61  57  87 S3          N/A
$$

...OBSERVATIONS IN SOUTHWEST NEBRASKA AND FAR NORTHEAST COLORADO...

CITY           SKY/WX    TMP DP  RH WIND       PRES   REMARKS
WRAY           FAIR      50  50 100 CALM      30.01F
HOLYOKE        FAIR      55  52  88 SW9       30.01S
IMPERIAL       PTCLDY    58  50  75 SW9       29.98S
OGALLALA       CLOUDY    56  49  77 W5        29.99S
NORTH PLATTE   PTCLDY    53  51  93 E3        30.00R
MCCOOK         CLEAR     55  50  83 SW7       30.00R
LEXINGTON      PTCLDY    58  52  80 SE5       30.00R
PAXTON           N/A     60  53  78 SW6         N/A
STAPLETON        N/A     54  51  90 CALM        N/A
GOTHENBURG       N/A     59  51  75 NW3         N/A
CALLAWAY         N/A     57  52  84 NE5         N/A
$$

...OBSERVATIONS IN CENTRAL LINCOLN COUNTY AREA...

CITY           SKY/WX    TMP DP  RH WIND       PRES   REMARKS
N.P. AIRPORT   PTCLDY    53  51  93 E3        30.00R
N.P. DOWNTOWN    N/A     58  53  84 CALM        N/A
N.P. HILLCREST   N/A     58  53  82 SE3         N/A
$$

...SOME OBSERVATIONS FROM AROUND THE REGION...

CITY           SKY/WX    TMP DP  RH WIND       PRES   REMARKS
DENVER         PTCLDY    50  40  68 SW10      30.05F
LARAMIE        CLOUDY    39  34  82 SE6       30.14S WCI  35
CHEYENNE       CLEAR     46  38  73 W6        30.08S
SCOTTSBLUFF    CLEAR     49  46  90 E3        29.98S
RAPID CITY     CLOUDY    48  47  96 E3        29.90S
BISMARCK       CLEAR     53  52  96 NE3       29.94S
PIERRE         CLOUDY    60  55  83 SE12      29.92F
SIOUX FALLS    CLOUDY    62  53  72 SE6       29.99F
OMAHA          MOSUNNY   63  60  90 CALM      30.02R
GRAND ISLAND   CLOUDY    62  54  74 S7        30.01S
KANSAS CITY    MOSUNNY   65  62  90 S3        30.05R
WICHITA        MOCLDY    63  58  83 SW5       30.03R
OKLAHOMA CITY  CLOUDY    66  64  93 SE8       30.03R
DALLAS         CLOUDY    69  63  81 NW13      29.98R
AMARILLO       CLEAR     50  48  93 CALM      30.14S
DODGE CITY     CLEAR     54  51  90 SW5       30.04F
HAYS           CLEAR     55  46  71 SW8       30.01R
GOODLAND       CLEAR     56  49  77 SW8       30.00F
$$




USA.gov is the U.S. government's official web portal to all federal, state and local government web resources and services.